Weather History for La Grange, GA

Change the Weather History Date:

Saturday, March 30, 2013

  Actual Average Record
Temperature  
Mean Temperature 60 °F -  
Max Temperature 74 °F 73 °F 85 °F (1985)
Min Temperature 46 °F 48 °F 25 °F (1964)
Degree Days  
Heating Degree Days 5    
Growing Degree Days 10 (Base 50)    
Moisture  
Dew Point 48 °F    
Average Humidity 64    
Maximum Humidity 98    
Minimum Humidity 41    
Precipitation  
Precipitation 0.00 in - - ()
Sea Level Pressure  
Sea Level Pressure 30.12 in    
Wind  
Wind Speed 3 mph (WSW)    
Max Wind Speed 10 mph    
Max Gust Speed 20 mph    
Visibility 10 miles    
Events Rain    
Averages and records for this station are not official NWS values.
T = Trace of Precipitation, MM = Missing Value Source: NWS Daily Summary

Daily Weather History Graph

Daily Weather History Graph

Search for Another Location

Airport:

Trip Planner

Search our weather history database for the weather conditions in past years. The results will help you decide how hot, cold, wet, or windy it might be!

Date:

Astronomy

Mar. 30, 2013 Rise Set
Actual Time 7:30 AM EDT 7:59 PM EDT
Civil Twilight 7:05 AM EDT 8:24 PM EDT
Nautical Twilight 6:36 AM EDT 8:53 PM EDT
Astronomical Twilight 6:06 AM EDT 9:23 PM EDT
Moon 11:52 PM EDT (3/30) 9:36 AM EDT (3/30)
Length of Visible Light 13h 18m
Length of Day
12h 28m
Waning Gibbous, 86% of the Moon is Illuminated
Mar 30
Waning Gibbous
Apr 3
Last Quarter
Apr 10
New
Apr 18
First Quarter
Apr 25
Full

Hourly Weather History & Observations

Time (EDT) Temp. Dew Point Humidity Pressure Visibility Wind Dir Wind Speed Gust Speed Precip Events Conditions
12:15 AM 54.7 °F 43.7 °F 66% 30.19 in 10.0 mi Calm Calm - N/A   Overcast
12:35 AM 54.3 °F 44.6 °F 70% 30.17 in 10.0 mi SE 4.6 mph - N/A   Overcast
12:55 AM 59.0 °F 39.7 °F 49% 30.19 in 10.0 mi SW 6.9 mph - N/A   Overcast
1:15 AM 59.5 °F 39.7 °F 48% 30.19 in 10.0 mi WSW 4.6 mph - N/A   Overcast
1:35 AM 60.4 °F 38.7 °F 45% 30.19 in 10.0 mi West 5.8 mph - N/A   Overcast
1:55 AM 60.8 °F 38.7 °F 44% 30.18 in 10.0 mi West 5.8 mph - N/A   Overcast
2:15 AM 61.0 °F 38.7 °F 44% 30.17 in 10.0 mi WSW 6.9 mph - N/A   Overcast
2:35 AM 61.0 °F 38.5 °F 43% 30.17 in 10.0 mi West 5.8 mph - N/A   Overcast
2:55 AM 61.0 °F 39.0 °F 44% 30.17 in 10.0 mi WSW 5.8 mph - N/A   Overcast
3:15 AM 60.3 °F 39.6 °F 46% 30.17 in 10.0 mi West 5.8 mph - N/A   Overcast
3:35 AM 59.7 °F 40.1 °F 48% 30.16 in 10.0 mi West 4.6 mph - N/A   Overcast
3:55 AM 58.1 °F 40.1 °F 51% 30.16 in 10.0 mi West 3.5 mph - N/A   Mostly Cloudy
4:15 AM 57.4 °F 39.7 °F 52% 30.16 in 10.0 mi Calm Calm - N/A   Scattered Clouds
4:35 AM 51.4 °F 40.1 °F 65% 30.15 in 10.0 mi Calm Calm - N/A   Scattered Clouds
4:55 AM 50.9 °F 40.5 °F 67% 30.15 in 10.0 mi Calm Calm - N/A   Mostly Cloudy
5:15 AM 49.8 °F 42.3 °F 75% 30.15 in 10.0 mi Calm Calm - N/A   Overcast
5:35 AM 50.0 °F 41.5 °F 73% 30.15 in 10.0 mi Calm Calm - N/A   Mostly Cloudy
5:55 AM 49.1 °F 41.4 °F 75% 30.15 in 10.0 mi Calm Calm - N/A   Mostly Cloudy
6:15 AM 47.3 °F 41.2 °F 79% 30.15 in 10.0 mi Calm Calm - N/A   Mostly Cloudy
6:35 AM 49.3 °F 43.7 °F 81% 30.15 in 10.0 mi Calm Calm - N/A   Overcast
6:55 AM 49.3 °F 42.8 °F 78% 30.16 in 10.0 mi Calm Calm - N/A   Overcast
7:15 AM 47.8 °F 42.8 °F 83% 30.16 in 10.0 mi Calm Calm - N/A   Scattered Clouds
7:35 AM 46.8 °F 42.4 °F 85% 30.17 in 10.0 mi Calm Calm - N/A   Scattered Clouds
7:55 AM 46.4 °F 42.1 °F 85% 30.17 in 10.0 mi Calm Calm - N/A   Scattered Clouds
8:15 AM 46.9 °F 42.4 °F 84% 30.18 in 10.0 mi Calm Calm - N/A   Scattered Clouds
8:35 AM 49.6 °F 43.7 °F 80% 30.19 in 10.0 mi Calm Calm - N/A   Scattered Clouds
8:55 AM 51.8 °F 44.8 °F 77% 30.19 in 10.0 mi Calm Calm - N/A   Scattered Clouds
9:15 AM 57.0 °F 46.2 °F 67% 30.19 in 10.0 mi SW 4.6 mph - N/A   Scattered Clouds
9:35 AM 57.4 °F 46.4 °F 67% 30.19 in 10.0 mi Calm Calm - N/A   Mostly Cloudy
9:55 AM 58.5 °F 47.7 °F 67% 30.20 in 10.0 mi West 5.8 mph - N/A   Overcast
10:15 AM 59.4 °F 48.4 °F 67% 30.19 in 10.0 mi West 3.5 mph - N/A   Overcast
10:35 AM 59.9 °F 48.2 °F 65% 30.19 in 10.0 mi Calm Calm - N/A   Overcast
10:55 AM 61.2 °F 48.2 °F 62% 30.19 in 10.0 mi West 5.8 mph - N/A   Overcast
11:15 AM 62.4 °F 48.4 °F 60% 30.19 in 10.0 mi Calm Calm - N/A   Mostly Cloudy
11:35 AM 64.8 °F 48.7 °F 56% 30.17 in 10.0 mi Calm Calm - N/A   Scattered Clouds
11:55 AM 66.4 °F 48.2 °F 52% 30.17 in 10.0 mi Calm Calm - N/A   Clear
12:15 PM 67.6 °F 48.4 °F 50% 30.16 in 10.0 mi Calm Calm - N/A   Clear
12:35 PM 69.1 °F 48.9 °F 49% 30.15 in 10.0 mi South 3.5 mph - N/A   Clear
12:55 PM 69.4 °F 48.2 °F 47% 30.15 in 10.0 mi West 6.9 mph - N/A   Mostly Cloudy
1:15 PM 70.3 °F 48.7 °F 46% 30.14 in 10.0 mi WNW 4.6 mph - N/A   Overcast
1:35 PM 70.7 °F 49.3 °F 47% 30.13 in 10.0 mi West 6.9 mph - N/A   Scattered Clouds
1:55 PM 72.1 °F 49.3 °F 44% 30.12 in 10.0 mi WSW 6.9 mph - N/A   Clear
2:15 PM 73.8 °F 48.7 °F 41% 30.11 in 10.0 mi West 9.2 mph 19.6 mph N/A   Scattered Clouds
2:35 PM 71.8 °F 48.6 °F 44% 30.10 in 10.0 mi West 9.2 mph 16.1 mph N/A   Mostly Cloudy
2:55 PM 72.9 °F 48.9 °F 43% 30.09 in 10.0 mi West 9.2 mph - N/A   Scattered Clouds
3:15 PM 74.1 °F 49.1 °F 41% 30.08 in 10.0 mi SW 4.6 mph - N/A   Scattered Clouds
3:35 PM 74.7 °F 50.2 °F 42% 30.08 in 10.0 mi SW 9.2 mph 17.3 mph N/A   Scattered Clouds
3:55 PM 72.0 °F 50.0 °F 46% 30.07 in 10.0 mi West 5.8 mph - N/A   Mostly Cloudy
4:15 PM 71.6 °F 49.6 °F 46% 30.06 in 10.0 mi WSW 6.9 mph - N/A   Overcast
4:35 PM 73.0 °F 49.6 °F 44% 30.05 in 10.0 mi WSW 9.2 mph - N/A   Overcast
4:55 PM 71.8 °F 49.1 °F 45% 30.05 in 10.0 mi West 5.8 mph - N/A   Overcast
5:15 PM 72.7 °F 49.3 °F 44% 30.04 in 10.0 mi SW 6.9 mph - N/A   Overcast
5:35 PM 71.8 °F 49.3 °F 45% 30.04 in 10.0 mi SW 5.8 mph - N/A   Overcast
5:55 PM 71.1 °F 50.2 °F 48% 30.04 in 10.0 mi SW 4.6 mph - N/A Rain Light Rain
6:15 PM 69.1 °F 51.4 °F 53% 30.04 in 10.0 mi Calm Calm - N/A Rain Light Rain
6:35 PM 67.8 °F 52.9 °F 59% 30.04 in 10.0 mi Calm Calm - N/A   Drizzle
6:55 PM 67.3 °F 57.6 °F 71% 30.03 in 10.0 mi Calm Calm - N/A   Overcast
7:15 PM 66.4 °F 57.0 °F 72% 30.03 in 10.0 mi Calm Calm - N/A   Overcast
7:35 PM 65.3 °F 57.0 °F 75% 30.02 in 10.0 mi Calm Calm - N/A   Overcast
7:55 PM 65.1 °F 56.8 °F 75% 30.02 in 10.0 mi Calm Calm - N/A   Overcast
8:15 PM 63.3 °F 59.2 °F 86% 30.02 in 10.0 mi Calm Calm - N/A   Overcast
8:35 PM 64.4 °F 55.8 °F 73% 30.03 in 10.0 mi Calm Calm - N/A   Overcast
8:55 PM 62.6 °F 57.4 °F 83% 30.04 in 10.0 mi NW 10.4 mph - N/A   Overcast
9:15 PM 61.3 °F 57.2 °F 86% 30.04 in 10.0 mi NNW 5.8 mph - N/A Rain Light Rain
9:35 PM 60.3 °F 57.7 °F 91% 30.05 in 7.0 mi Calm Calm - N/A Rain Light Rain
9:55 PM 59.7 °F 58.1 °F 94% 30.04 in 10.0 mi Calm Calm - N/A   Overcast
10:15 PM 59.4 °F 58.1 °F 96% 30.05 in 10.0 mi Calm Calm - N/A   Overcast
10:35 PM 59.0 °F 57.9 °F 96% 30.05 in 7.0 mi Calm Calm - N/A   Overcast
10:55 PM 58.6 °F 58.1 °F 98% 30.04 in 5.0 mi Calm Calm - N/A   Overcast
11:15 PM 58.8 °F 57.9 °F 97% 30.05 in 7.0 mi Calm Calm - N/A   Overcast
11:35 PM 58.6 °F 57.7 °F 97% 30.04 in 7.0 mi Calm Calm - N/A   Light Drizzle
11:55 PM 58.1 °F 57.4 °F 97% 30.04 in 7.0 mi Calm Calm - N/A   Mostly Cloudy